Year,Month,Day,Hour,Minute,Value (Times are PST for windspeed in km/hr)
2018,02,27,00,00,6.40
2018,02,27,00,01,5.80
2018,02,27,00,02,8.10
2018,02,27,00,03,6.70
2018,02,27,00,04,7.40
2018,02,27,00,05,6.70
2018,02,27,00,06,8.30
2018,02,27,00,07,8.10
2018,02,27,00,08,7.90
2018,02,27,00,09,5.70
2018,02,27,00,10,7.10
2018,02,27,00,11,9.30
2018,02,27,00,12,6.60
2018,02,27,00,13,8.10
2018,02,27,00,14,10.20
2018,02,27,00,15,8.40
2018,02,27,00,16,4.80
2018,02,27,00,17,3.30
2018,02,27,00,18,8.40
2018,02,27,00,19,6.90
2018,02,27,00,20,5.70
2018,02,27,00,21,7.50
2018,02,27,00,22,4.70
2018,02,27,00,23,4.90
2018,02,27,00,24,5.80
2018,02,27,00,25,4.50
2018,02,27,00,26,7.80
2018,02,27,00,27,8.30
2018,02,27,00,28,7.50
2018,02,27,00,29,6.50
2018,02,27,00,30,6.10
2018,02,27,00,31,5.40
2018,02,27,00,32,3.10
2018,02,27,00,33,5.60
2018,02,27,00,34,5.10
2018,02,27,00,35,5.10
2018,02,27,00,36,4.40
2018,02,27,00,37,6.10
2018,02,27,00,38,6.90
2018,02,27,00,39,6.30
2018,02,27,00,40,5.70
2018,02,27,00,41,3.90
2018,02,27,00,42,5.30
2018,02,27,00,43,3.20
2018,02,27,00,44,4.10
2018,02,27,00,45,3.70
2018,02,27,00,46,3.40
2018,02,27,00,47,4.90
2018,02,27,00,48,3.40
2018,02,27,00,49,5.60
2018,02,27,00,50,4.80
2018,02,27,00,51,8.60
2018,02,27,00,52,7.60
2018,02,27,00,53,8.00
2018,02,27,00,54,10.80
2018,02,27,00,55,8.90
2018,02,27,00,56,9.50
2018,02,27,00,57,8.40
2018,02,27,00,58,8.40
2018,02,27,00,59,5.00
2018,02,27,01,00,7.90
2018,02,27,01,01,8.10
2018,02,27,01,02,8.30
2018,02,27,01,03,12.10
2018,02,27,01,04,8.20
2018,02,27,01,05,8.60
2018,02,27,01,06,12.10
2018,02,27,01,07,8.60
2018,02,27,01,08,9.70
2018,02,27,01,09,9.90
2018,02,27,01,10,9.30
2018,02,27,01,11,8.90
2018,02,27,01,12,7.50
2018,02,27,01,13,8.70
2018,02,27,01,14,10.40
2018,02,27,01,15,11.20
2018,02,27,01,16,10.00
2018,02,27,01,17,9.90
2018,02,27,01,18,8.30
2018,02,27,01,19,8.70
2018,02,27,01,20,14.60
2018,02,27,01,21,11.30
2018,02,27,01,22,8.80
2018,02,27,01,23,12.00
2018,02,27,01,24,10.20
2018,02,27,01,25,8.90
2018,02,27,01,26,10.10
2018,02,27,01,27,7.80
2018,02,27,01,28,11.00
2018,02,27,01,29,8.90
2018,02,27,01,30,10.50
2018,02,27,01,31,8.50
2018,02,27,01,32,5.80
2018,02,27,01,33,9.70
2018,02,27,01,34,8.70
2018,02,27,01,35,9.40
2018,02,27,01,36,9.80
2018,02,27,01,37,10.00
2018,02,27,01,38,10.40
2018,02,27,01,39,10.90
2018,02,27,01,40,10.00
2018,02,27,01,41,8.60
2018,02,27,01,42,6.20
2018,02,27,01,43,10.10
2018,02,27,01,44,9.40
2018,02,27,01,45,11.30
2018,02,27,01,46,12.20
2018,02,27,01,47,17.90
2018,02,27,01,48,15.20
2018,02,27,01,49,14.50
2018,02,27,01,50,8.10
2018,02,27,01,51,9.40
2018,02,27,01,52,10.00
2018,02,27,01,53,11.90
2018,02,27,01,54,15.70
2018,02,27,01,55,13.60
2018,02,27,01,56,13.40
2018,02,27,01,57,7.60
2018,02,27,01,58,11.30
2018,02,27,01,59,12.80
2018,02,27,02,00,12.40
2018,02,27,02,01,11.60
2018,02,27,02,02,9.70
2018,02,27,02,03,12.10
2018,02,27,02,04,10.10
2018,02,27,02,05,9.20
2018,02,27,02,06,9.90
2018,02,27,02,07,12.40
2018,02,27,02,08,11.60
2018,02,27,02,09,11.60
2018,02,27,02,10,10.80
2018,02,27,02,11,8.20
2018,02,27,02,12,9.10
2018,02,27,02,13,8.20
2018,02,27,02,14,12.70
2018,02,27,02,15,15.10
2018,02,27,02,16,14.70
2018,02,27,02,17,11.10
2018,02,27,02,18,7.90
2018,02,27,02,19,8.40
2018,02,27,02,20,13.50
2018,02,27,02,21,15.50
2018,02,27,02,22,16.10
2018,02,27,02,23,22.90
2018,02,27,02,24,14.30
2018,02,27,02,25,12.30
2018,02,27,02,26,14.10
2018,02,27,02,27,16.40
2018,02,27,02,28,13.70
2018,02,27,02,29,10.10
2018,02,27,02,30,8.60
2018,02,27,02,31,10.00
2018,02,27,02,32,11.30
2018,02,27,02,33,14.20
2018,02,27,02,34,14.60
2018,02,27,02,35,10.70
2018,02,27,02,36,10.20
2018,02,27,02,37,9.90
2018,02,27,02,38,12.40
2018,02,27,02,39,13.20
2018,02,27,02,40,13.10
2018,02,27,02,41,10.80
2018,02,27,02,42,11.70
2018,02,27,02,43,12.40
2018,02,27,02,44,12.30
2018,02,27,02,45,12.50
2018,02,27,02,46,10.20
2018,02,27,02,47,10.50
2018,02,27,02,48,9.00
2018,02,27,02,49,9.20
2018,02,27,02,50,12.40
2018,02,27,02,51,9.50
2018,02,27,02,52,10.50
2018,02,27,02,53,10.30
2018,02,27,02,54,10.20
2018,02,27,02,55,13.20
2018,02,27,02,56,11.20
2018,02,27,02,57,14.00
2018,02,27,02,58,11.10
2018,02,27,02,59,14.50
2018,02,27,03,00,15.60
2018,02,27,03,01,12.50
2018,02,27,03,02,17.20
2018,02,27,03,03,14.70
2018,02,27,03,04,10.90
2018,02,27,03,05,11.70
2018,02,27,03,06,11.00
2018,02,27,03,07,17.00
2018,02,27,03,08,14.80
2018,02,27,03,09,18.90
2018,02,27,03,10,18.60
2018,02,27,03,11,17.00
2018,02,27,03,12,11.30
2018,02,27,03,13,13.50
2018,02,27,03,14,15.70
2018,02,27,03,15,14.60
2018,02,27,03,16,9.90
2018,02,27,03,17,11.90
2018,02,27,03,18,14.90
2018,02,27,03,19,18.10
2018,02,27,03,20,17.60
2018,02,27,03,21,15.40
2018,02,27,03,22,11.30
2018,02,27,03,23,13.70
2018,02,27,03,24,14.30
2018,02,27,03,25,14.10
2018,02,27,03,26,21.40
2018,02,27,03,27,18.90
2018,02,27,03,28,13.80
2018,02,27,03,29,17.30
2018,02,27,03,30,18.80
2018,02,27,03,31,15.10
2018,02,27,03,32,15.30
2018,02,27,03,33,14.00
2018,02,27,03,34,15.00
2018,02,27,03,35,15.70
2018,02,27,03,36,17.60
2018,02,27,03,37,11.40
2018,02,27,03,38,15.40
2018,02,27,03,39,13.50
2018,02,27,03,40,17.90
2018,02,27,03,41,16.40
2018,02,27,03,42,16.00
2018,02,27,03,43,17.80
2018,02,27,03,44,16.20
2018,02,27,03,45,16.60
2018,02,27,03,46,18.30
2018,02,27,03,47,12.10
2018,02,27,03,48,14.40
2018,02,27,03,49,10.80
2018,02,27,03,50,18.50
2018,02,27,03,51,11.10
2018,02,27,03,52,16.70
2018,02,27,03,53,16.70
2018,02,27,03,54,14.30
2018,02,27,03,55,11.30
2018,02,27,03,56,11.60
2018,02,27,03,57,11.70
2018,02,27,03,58,15.40
2018,02,27,03,59,17.80
2018,02,27,04,00,19.70
2018,02,27,04,01,14.60
2018,02,27,04,02,18.40
2018,02,27,04,03,17.20
2018,02,27,04,04,17.00
2018,02,27,04,05,14.30
2018,02,27,04,06,10.50
2018,02,27,04,07,10.00
2018,02,27,04,08,11.30
2018,02,27,04,09,7.90
2018,02,27,04,10,8.30
2018,02,27,04,11,11.20
2018,02,27,04,12,12.20
2018,02,27,04,13,9.30
2018,02,27,04,14,11.60
2018,02,27,04,15,12.90
2018,02,27,04,16,11.00
2018,02,27,04,17,8.30
2018,02,27,04,18,12.10
2018,02,27,04,19,15.90
2018,02,27,04,20,12.90
2018,02,27,04,21,14.40
2018,02,27,04,22,16.10
2018,02,27,04,23,15.80
2018,02,27,04,24,15.60
2018,02,27,04,25,12.20
2018,02,27,04,26,15.00
2018,02,27,04,27,13.90
2018,02,27,04,28,12.70
2018,02,27,04,29,10.60
2018,02,27,04,30,14.10
2018,02,27,04,31,8.10
2018,02,27,04,32,7.30
2018,02,27,04,33,5.30
2018,02,27,04,34,7.70
2018,02,27,04,35,9.90
2018,02,27,04,36,11.50
2018,02,27,04,37,15.80
2018,02,27,04,38,14.00
2018,02,27,04,39,13.00
2018,02,27,04,40,8.50
2018,02,27,04,41,11.00
2018,02,27,04,42,14.70
2018,02,27,04,43,12.10
2018,02,27,04,44,13.80
2018,02,27,04,45,12.70
2018,02,27,04,46,16.10
2018,02,27,04,47,10.30
2018,02,27,04,48,13.50
2018,02,27,04,49,9.10
2018,02,27,04,50,8.10
2018,02,27,04,51,11.70
2018,02,27,04,52,13.10
2018,02,27,04,53,17.60
2018,02,27,04,54,10.50
2018,02,27,04,55,14.90
2018,02,27,04,56,15.60
2018,02,27,04,57,13.50
2018,02,27,04,58,12.90
2018,02,27,04,59,19.50
2018,02,27,05,00,11.90
2018,02,27,05,01,11.20
2018,02,27,05,02,11.70
2018,02,27,05,03,13.30
2018,02,27,05,04,13.30
2018,02,27,05,05,9.70
2018,02,27,05,06,9.90
2018,02,27,05,07,5.90
2018,02,27,05,08,6.90
2018,02,27,05,09,10.20
2018,02,27,05,10,12.00
2018,02,27,05,11,14.80
2018,02,27,05,12,8.90
2018,02,27,05,13,12.30
2018,02,27,05,14,7.60
2018,02,27,05,15,8.40
2018,02,27,05,16,7.00
2018,02,27,05,17,9.60
2018,02,27,05,18,13.00
2018,02,27,05,19,11.60
2018,02,27,05,20,13.80
2018,02,27,05,21,9.10
2018,02,27,05,22,8.20
2018,02,27,05,23,9.40
2018,02,27,05,24,7.50
2018,02,27,05,25,6.00
2018,02,27,05,26,4.60
2018,02,27,05,27,5.30
2018,02,27,05,28,9.50
2018,02,27,05,29,8.40
2018,02,27,05,30,6.70
2018,02,27,05,31,7.50
2018,02,27,05,32,5.60
2018,02,27,05,33,7.30
2018,02,27,05,34,4.80
2018,02,27,05,35,4.40
2018,02,27,05,36,4.50
2018,02,27,05,37,4.70
2018,02,27,05,38,6.80
2018,02,27,05,39,8.40
2018,02,27,05,40,9.00
2018,02,27,05,41,6.50
2018,02,27,05,42,8.10
2018,02,27,05,43,9.00
2018,02,27,05,44,8.40
2018,02,27,05,45,9.30
2018,02,27,05,46,9.40
2018,02,27,05,47,9.30
2018,02,27,05,48,8.30
2018,02,27,05,49,9.70
2018,02,27,05,50,10.50
2018,02,27,05,51,7.50
2018,02,27,05,52,6.80
2018,02,27,05,53,7.80
2018,02,27,05,54,7.20
2018,02,27,05,55,6.80
2018,02,27,05,56,8.50
2018,02,27,05,57,9.90
2018,02,27,05,58,7.60
2018,02,27,05,59,9.30
2018,02,27,06,00,9.40
2018,02,27,06,01,9.10
2018,02,27,06,02,9.60
2018,02,27,06,03,7.50
2018,02,27,06,04,8.10
2018,02,27,06,05,8.10
2018,02,27,06,06,9.80
2018,02,27,06,07,8.60
2018,02,27,06,08,9.70
2018,02,27,06,09,11.60
2018,02,27,06,10,9.40
2018,02,27,06,11,10.50
2018,02,27,06,12,6.50
2018,02,27,06,13,7.50
2018,02,27,06,14,5.60
2018,02,27,06,15,8.30
2018,02,27,06,16,5.90
2018,02,27,06,17,9.10
2018,02,27,06,18,5.30
2018,02,27,06,19,5.10
2018,02,27,06,20,6.50
2018,02,27,06,21,9.30
2018,02,27,06,22,9.40
2018,02,27,06,23,9.80
2018,02,27,06,24,11.60
2018,02,27,06,25,12.70
2018,02,27,06,26,7.80
2018,02,27,06,27,9.10
2018,02,27,06,28,7.00
2018,02,27,06,29,7.50
2018,02,27,06,30,10.80
2018,02,27,06,31,9.50
2018,02,27,06,32,12.70
2018,02,27,06,33,10.30
2018,02,27,06,34,11.10
2018,02,27,06,35,8.30
2018,02,27,06,36,7.50
2018,02,27,06,37,6.60
2018,02,27,06,38,7.60
2018,02,27,06,39,9.50
2018,02,27,06,40,6.90
2018,02,27,06,41,9.40
2018,02,27,06,42,5.00
2018,02,27,06,43,4.30
2018,02,27,06,44,5.60
2018,02,27,06,45,3.10
2018,02,27,06,46,5.70
2018,02,27,06,47,5.60
2018,02,27,06,48,4.00
2018,02,27,06,49,4.80
2018,02,27,06,50,5.70
2018,02,27,06,51,6.50
2018,02,27,06,52,8.30
2018,02,27,06,53,5.30
2018,02,27,06,54,5.20
2018,02,27,06,55,6.10
2018,02,27,06,56,7.90
2018,02,27,06,57,5.90
2018,02,27,06,58,5.90
2018,02,27,06,59,4.30
2018,02,27,07,00,4.50
2018,02,27,07,01,5.50
2018,02,27,07,02,4.70
2018,02,27,07,03,6.00
2018,02,27,07,04,7.90
2018,02,27,07,05,7.60
2018,02,27,07,06,6.50
2018,02,27,07,07,6.20
2018,02,27,07,08,8.10
2018,02,27,07,09,6.70
2018,02,27,07,10,5.30
2018,02,27,07,11,5.90
2018,02,27,07,12,7.70
2018,02,27,07,13,4.70
2018,02,27,07,14,6.00
2018,02,27,07,15,7.40
2018,02,27,07,16,7.00
2018,02,27,07,17,7.00
2018,02,27,07,18,8.90
2018,02,27,07,19,9.40
2018,02,27,07,20,7.10
2018,02,27,07,21,7.50
2018,02,27,07,22,4.90
2018,02,27,07,23,6.00
2018,02,27,07,24,10.40
2018,02,27,07,25,8.00
2018,02,27,07,26,7.10
2018,02,27,07,27,7.40
2018,02,27,07,28,7.60
2018,02,27,07,29,9.40
2018,02,27,07,30,9.00
2018,02,27,07,31,9.70
2018,02,27,07,32,6.70
2018,02,27,07,33,5.40
2018,02,27,07,34,4.70
2018,02,27,07,35,5.70
2018,02,27,07,36,7.40
2018,02,27,07,37,5.80
2018,02,27,07,38,8.10
2018,02,27,07,39,7.90
2018,02,27,07,40,6.50
2018,02,27,07,41,6.20
2018,02,27,07,42,4.50
2018,02,27,07,43,5.40
2018,02,27,07,44,5.00
2018,02,27,07,45,6.10
2018,02,27,07,46,6.30
2018,02,27,07,47,5.20
2018,02,27,07,48,4.50
2018,02,27,07,49,8.10
2018,02,27,07,50,6.10
2018,02,27,07,51,5.90
2018,02,27,07,52,6.20
2018,02,27,07,53,4.60
2018,02,27,07,54,4.80
2018,02,27,07,55,4.50
2018,02,27,07,56,6.30
2018,02,27,07,57,5.20
2018,02,27,07,58,3.90
2018,02,27,07,59,5.30
2018,02,27,08,00,3.20
2018,02,27,08,01,4.10
2018,02,27,08,02,4.20
2018,02,27,08,03,2.00
2018,02,27,08,04,2.80
2018,02,27,08,05,2.90
2018,02,27,08,06,3.40
2018,02,27,08,07,1.70
2018,02,27,08,08,4.10
2018,02,27,08,09,3.20
2018,02,27,08,10,3.70
2018,02,27,08,11,3.40
2018,02,27,08,12,0.50
2018,02,27,08,13,3.40
2018,02,27,08,14,6.80
2018,02,27,08,15,5.10
2018,02,27,08,16,5.00
2018,02,27,08,17,3.70
2018,02,27,08,18,4.40
2018,02,27,08,19,3.90
2018,02,27,08,20,4.30
2018,02,27,08,21,4.10
2018,02,27,08,22,4.10
2018,02,27,08,23,3.50
2018,02,27,08,24,4.80
2018,02,27,08,25,3.70
2018,02,27,08,26,3.30
2018,02,27,08,27,3.30
2018,02,27,08,28,6.80
2018,02,27,08,29,7.20
2018,02,27,08,30,7.90
2018,02,27,08,31,7.60
2018,02,27,08,32,5.30
2018,02,27,08,33,4.30
2018,02,27,08,34,1.50
2018,02,27,08,35,5.60
2018,02,27,08,36,5.30
2018,02,27,08,37,4.10
2018,02,27,08,38,1.90
2018,02,27,08,39,2.30
2018,02,27,08,40,2.70
2018,02,27,08,41,2.60
2018,02,27,08,42,4.70
2018,02,27,08,43,2.80
2018,02,27,08,44,1.20
2018,02,27,08,45,1.30
2018,02,27,08,46,1.90
2018,02,27,08,47,2.80
2018,02,27,08,48,3.40
2018,02,27,08,49,4.20
2018,02,27,08,50,2.00
2018,02,27,08,51,2.30
2018,02,27,08,52,5.90
2018,02,27,08,53,6.30
2018,02,27,08,54,5.90
2018,02,27,08,55,5.90
2018,02,27,08,56,7.80
2018,02,27,08,57,7.40
2018,02,27,08,58,7.40
2018,02,27,08,59,6.90
2018,02,27,09,00,6.10
2018,02,27,09,01,11.60
2018,02,27,09,02,8.70
2018,02,27,09,03,5.40
2018,02,27,09,04,8.50
2018,02,27,09,05,8.40
2018,02,27,09,06,5.70
2018,02,27,09,07,9.70
2018,02,27,09,08,7.70
2018,02,27,09,09,7.40
2018,02,27,09,10,4.60
2018,02,27,09,11,4.10
2018,02,27,09,12,6.50
2018,02,27,09,13,7.40
2018,02,27,09,14,8.90
2018,02,27,09,15,8.70
2018,02,27,09,16,10.20
2018,02,27,09,17,8.70
2018,02,27,09,18,10.40
2018,02,27,09,19,11.10
2018,02,27,09,20,14.60
2018,02,27,09,21,12.10
2018,02,27,09,22,10.70
2018,02,27,09,23,15.10
2018,02,27,09,24,13.70
2018,02,27,09,25,15.40
2018,02,27,09,26,12.30
2018,02,27,09,27,14.10
2018,02,27,09,28,11.30
2018,02,27,09,29,14.30
2018,02,27,09,30,12.70
2018,02,27,09,31,12.30
2018,02,27,09,32,12.90
2018,02,27,09,33,13.80
2018,02,27,09,34,14.90
2018,02,27,09,35,17.00
2018,02,27,09,36,14.90
2018,02,27,09,37,15.00
2018,02,27,09,38,12.70
2018,02,27,09,39,14.20
2018,02,27,09,40,13.80
2018,02,27,09,41,13.70
2018,02,27,09,42,15.10
2018,02,27,09,43,14.30
2018,02,27,09,44,13.80
2018,02,27,09,45,15.90
2018,02,27,09,46,9.90
2018,02,27,09,47,10.70
2018,02,27,09,48,12.90
2018,02,27,09,49,11.80
2018,02,27,09,50,16.10
2018,02,27,09,51,11.20
2018,02,27,09,52,19.40
2018,02,27,09,53,21.10
2018,02,27,09,54,14.40
2018,02,27,09,55,15.70
2018,02,27,09,56,14.50
2018,02,27,09,57,9.70
2018,02,27,09,58,12.40
2018,02,27,09,59,12.00
2018,02,27,10,00,19.90
2018,02,27,10,01,15.20
2018,02,27,10,02,17.60
2018,02,27,10,03,18.30
2018,02,27,10,04,17.20
2018,02,27,10,05,12.90
2018,02,27,10,06,13.80
2018,02,27,10,07,20.30
2018,02,27,10,08,12.90
2018,02,27,10,09,13.00
2018,02,27,10,10,15.30
2018,02,27,10,11,11.30
2018,02,27,10,12,15.70
2018,02,27,10,13,12.80
2018,02,27,10,14,13.20
2018,02,27,10,15,19.90
2018,02,27,10,16,11.40
2018,02,27,10,17,18.00
2018,02,27,10,18,20.30
2018,02,27,10,19,14.00
2018,02,27,10,20,17.20
2018,02,27,10,21,19.60
2018,02,27,10,22,15.70
2018,02,27,10,23,13.80
2018,02,27,10,24,12.70
2018,02,27,10,25,13.40
2018,02,27,10,26,16.70
2018,02,27,10,27,14.80
2018,02,27,10,28,11.90
2018,02,27,10,29,8.90
2018,02,27,10,30,7.00
2018,02,27,10,31,13.20
2018,02,27,10,32,18.00
2018,02,27,10,33,14.00
2018,02,27,10,34,17.50
2018,02,27,10,35,20.00
2018,02,27,10,36,14.90
2018,02,27,10,37,15.30
2018,02,27,10,38,14.10
2018,02,27,10,39,17.30
2018,02,27,10,40,22.80
2018,02,27,10,41,19.70
2018,02,27,10,42,12.00
2018,02,27,10,43,12.40
2018,02,27,10,44,15.00
2018,02,27,10,45,13.80
2018,02,27,10,46,16.10
2018,02,27,10,47,14.60
2018,02,27,10,48,18.60
2018,02,27,10,49,12.30
2018,02,27,10,50,13.70
2018,02,27,10,51,14.90
2018,02,27,10,52,13.90
2018,02,27,10,53,13.70
2018,02,27,10,54,17.50
2018,02,27,10,55,17.30
2018,02,27,10,56,22.90
2018,02,27,10,57,13.10
2018,02,27,10,58,12.50
2018,02,27,10,59,16.90
2018,02,27,11,00,19.50
2018,02,27,11,01,22.10
2018,02,27,11,02,18.10
2018,02,27,11,03,11.40
2018,02,27,11,04,16.20
2018,02,27,11,05,21.10
2018,02,27,11,06,18.50
2018,02,27,11,07,16.20
2018,02,27,11,08,14.60
2018,02,27,11,09,17.00
2018,02,27,11,10,15.50
2018,02,27,11,11,11.80
2018,02,27,11,12,13.20
2018,02,27,11,13,16.30
2018,02,27,11,14,19.60
2018,02,27,11,15,16.20
2018,02,27,11,16,20.70
2018,02,27,11,17,10.20
2018,02,27,11,18,14.00
2018,02,27,11,19,13.70
2018,02,27,11,20,11.80
2018,02,27,11,21,15.20
2018,02,27,11,22,10.00
2018,02,27,11,23,15.50
2018,02,27,11,24,16.70
2018,02,27,11,25,15.80
2018,02,27,11,26,13.00
2018,02,27,11,27,20.20
2018,02,27,11,28,19.40
2018,02,27,11,29,14.30
2018,02,27,11,30,17.80
2018,02,27,11,31,14.30
2018,02,27,11,32,18.40
2018,02,27,11,33,19.00
2018,02,27,11,34,13.20
2018,02,27,11,35,16.40
2018,02,27,11,36,17.40
2018,02,27,11,37,18.70
2018,02,27,11,38,20.00
2018,02,27,11,39,18.40
2018,02,27,11,40,18.60
2018,02,27,11,41,12.10
2018,02,27,11,42,12.20
2018,02,27,11,43,12.00
2018,02,27,11,44,16.70
2018,02,27,11,45,14.80
2018,02,27,11,46,13.10
2018,02,27,11,47,10.10
2018,02,27,11,48,14.70
2018,02,27,11,49,14.50
2018,02,27,11,50,19.10
2018,02,27,11,51,17.60
2018,02,27,11,52,17.50
2018,02,27,11,53,16.20
2018,02,27,11,54,18.10
2018,02,27,11,55,11.60
2018,02,27,11,56,9.10
2018,02,27,11,57,13.20
2018,02,27,11,58,11.90
2018,02,27,11,59,11.60
2018,02,27,12,00,10.50
2018,02,27,12,01,12.80
2018,02,27,12,02,9.20
2018,02,27,12,03,11.80
2018,02,27,12,04,18.10
2018,02,27,12,05,14.30
2018,02,27,12,06,12.30
2018,02,27,12,07,20.10
2018,02,27,12,08,14.40
2018,02,27,12,09,18.90
2018,02,27,12,10,11.40
2018,02,27,12,11,10.00
2018,02,27,12,12,7.30
2018,02,27,12,13,11.60
2018,02,27,12,14,9.70
2018,02,27,12,15,14.00
2018,02,27,12,16,9.60
2018,02,27,12,17,7.50
2018,02,27,12,18,10.30
2018,02,27,12,19,12.90
2018,02,27,12,20,11.60
2018,02,27,12,21,16.30
2018,02,27,12,22,15.00
2018,02,27,12,23,20.60
2018,02,27,12,24,17.30
2018,02,27,12,25,11.00
2018,02,27,12,26,11.80
2018,02,27,12,27,17.50
2018,02,27,12,28,14.60
2018,02,27,12,29,14.20
2018,02,27,12,30,16.70
2018,02,27,12,31,17.90
2018,02,27,12,32,20.10
2018,02,27,12,33,15.90
2018,02,27,12,34,24.20
2018,02,27,12,35,23.90
2018,02,27,12,36,14.60
2018,02,27,12,37,13.50
2018,02,27,12,38,10.60
2018,02,27,12,39,16.00
2018,02,27,12,40,15.40
2018,02,27,12,41,16.50
2018,02,27,12,42,20.00
2018,02,27,12,43,15.50
2018,02,27,12,44,18.10
2018,02,27,12,45,20.00
2018,02,27,12,46,22.10
2018,02,27,12,47,21.50
2018,02,27,12,48,16.20
2018,02,27,12,49,14.60
2018,02,27,12,50,22.10
2018,02,27,12,51,15.40
2018,02,27,12,52,17.90
2018,02,27,12,53,16.50
2018,02,27,12,54,19.20
2018,02,27,12,55,22.90
2018,02,27,12,56,19.10
2018,02,27,12,57,20.80
2018,02,27,12,58,24.10
2018,02,27,12,59,17.70
2018,02,27,13,00,22.50
2018,02,27,13,01,19.20
2018,02,27,13,02,18.70
2018,02,27,13,03,19.80
2018,02,27,13,04,21.00
2018,02,27,13,05,18.10
2018,02,27,13,06,20.20
2018,02,27,13,07,23.20
2018,02,27,13,08,13.80
2018,02,27,13,09,22.00
2018,02,27,13,10,23.90
2018,02,27,13,11,21.70
2018,02,27,13,12,24.70
2018,02,27,13,13,18.00
2018,02,27,13,14,19.00
2018,02,27,13,15,19.80
2018,02,27,13,16,23.80
2018,02,27,13,17,14.30
2018,02,27,13,18,17.00
2018,02,27,13,19,14.60
2018,02,27,13,20,15.20
2018,02,27,13,21,13.40
2018,02,27,13,22,17.10
2018,02,27,13,23,15.90
2018,02,27,13,24,16.70
2018,02,27,13,25,11.10
2018,02,27,13,26,12.00
2018,02,27,13,27,14.00
2018,02,27,13,28,12.30
2018,02,27,13,29,15.70
2018,02,27,13,30,13.80
2018,02,27,13,31,16.70
2018,02,27,13,32,8.30
2018,02,27,13,33,12.30
2018,02,27,13,34,20.50
2018,02,27,13,35,12.40
2018,02,27,13,36,11.20
2018,02,27,13,37,11.10
2018,02,27,13,38,13.50
2018,02,27,13,39,20.60
2018,02,27,13,40,14.60
2018,02,27,13,41,15.80
2018,02,27,13,42,19.00
2018,02,27,13,43,19.20
2018,02,27,13,44,14.10
2018,02,27,13,45,16.50
2018,02,27,13,46,20.40
2018,02,27,13,47,20.10
2018,02,27,13,48,21.50
2018,02,27,13,49,20.00
2018,02,27,13,50,19.30
2018,02,27,13,51,16.60
2018,02,27,13,52,17.60
2018,02,27,13,53,24.40
2018,02,27,13,54,21.70
2018,02,27,13,55,19.30
2018,02,27,13,56,19.80
2018,02,27,13,57,18.40
2018,02,27,13,58,17.30
2018,02,27,13,59,20.50
2018,02,27,14,00,13.00
2018,02,27,14,01,16.70
2018,02,27,14,02,14.10
2018,02,27,14,03,19.10
2018,02,27,14,04,20.00
2018,02,27,14,05,21.80
2018,02,27,14,06,22.10
2018,02,27,14,07,21.60
2018,02,27,14,08,18.90
2018,02,27,14,09,24.10
2018,02,27,14,10,18.70
2018,02,27,14,11,17.90
2018,02,27,14,12,16.20
2018,02,27,14,13,18.10
2018,02,27,14,14,20.60
2018,02,27,14,15,23.00
2018,02,27,14,16,18.80
2018,02,27,14,17,16.10
2018,02,27,14,18,20.80
2018,02,27,14,19,14.90
2018,02,27,14,20,23.00
2018,02,27,14,21,16.40
2018,02,27,14,22,20.80
2018,02,27,14,23,22.10
2018,02,27,14,24,12.30
2018,02,27,14,25,14.30
2018,02,27,14,26,20.80
2018,02,27,14,27,19.90
2018,02,27,14,28,23.30
2018,02,27,14,29,24.60
2018,02,27,14,30,15.50
2018,02,27,14,31,13.40
2018,02,27,14,32,14.70
2018,02,27,14,33,18.40
2018,02,27,14,34,19.40
2018,02,27,14,35,14.40
2018,02,27,14,36,17.00
2018,02,27,14,37,21.40
2018,02,27,14,38,14.80
2018,02,27,14,39,17.80
2018,02,27,14,40,15.30
2018,02,27,14,41,13.30
2018,02,27,14,42,16.10
2018,02,27,14,43,19.40
2018,02,27,14,44,13.90
2018,02,27,14,45,18.40
2018,02,27,14,46,23.70
2018,02,27,14,47,17.70
2018,02,27,14,48,16.00
2018,02,27,14,49,17.00
2018,02,27,14,50,12.70
2018,02,27,14,51,15.20
2018,02,27,14,52,13.40
2018,02,27,14,53,15.20
2018,02,27,14,54,17.30
2018,02,27,14,55,13.40
2018,02,27,14,56,18.90
2018,02,27,14,57,13.00
2018,02,27,14,58,14.30
2018,02,27,14,59,9.70
2018,02,27,15,00,11.70
2018,02,27,15,01,13.50
2018,02,27,15,02,18.00
2018,02,27,15,03,13.90
2018,02,27,15,04,17.30
2018,02,27,15,05,16.30
2018,02,27,15,06,17.40
2018,02,27,15,07,10.10
2018,02,27,15,08,13.30
2018,02,27,15,09,11.10
2018,02,27,15,10,17.40
2018,02,27,15,11,8.60
2018,02,27,15,12,11.90
2018,02,27,15,13,18.20
2018,02,27,15,14,16.50
2018,02,27,15,15,11.90
2018,02,27,15,16,13.40
2018,02,27,15,17,21.10
2018,02,27,15,18,15.30
2018,02,27,15,19,14.90
2018,02,27,15,20,16.50
2018,02,27,15,21,21.30
2018,02,27,15,22,13.60
2018,02,27,15,23,12.60
2018,02,27,15,24,16.90
2018,02,27,15,25,11.40
2018,02,27,15,26,13.50
2018,02,27,15,27,7.70
2018,02,27,15,28,10.00
2018,02,27,15,29,8.90
2018,02,27,15,30,14.50
2018,02,27,15,31,13.20
2018,02,27,15,32,10.00
2018,02,27,15,33,9.70
2018,02,27,15,34,10.20
2018,02,27,15,35,11.40
2018,02,27,15,36,16.10
2018,02,27,15,37,17.00
2018,02,27,15,38,11.70
2018,02,27,15,39,12.90
2018,02,27,15,40,8.50
2018,02,27,15,41,7.20
2018,02,27,15,42,12.80
2018,02,27,15,43,6.40
2018,02,27,15,44,11.80
2018,02,27,15,45,12.40
2018,02,27,15,46,8.40
2018,02,27,15,47,19.20
2018,02,27,15,48,18.30
2018,02,27,15,49,16.50
2018,02,27,15,50,8.10
2018,02,27,15,51,6.40
2018,02,27,15,52,10.00
2018,02,27,15,53,11.90
2018,02,27,15,54,10.10
2018,02,27,15,55,9.80
2018,02,27,15,56,15.40
2018,02,27,15,57,18.30
2018,02,27,15,58,12.40
2018,02,27,15,59,8.70
2018,02,27,16,00,7.60
2018,02,27,16,01,11.90
2018,02,27,16,02,10.80
2018,02,27,16,03,15.50
2018,02,27,16,04,22.50
2018,02,27,16,05,16.40
2018,02,27,16,06,16.50
2018,02,27,16,07,18.30
2018,02,27,16,08,16.50
2018,02,27,16,09,20.10
2018,02,27,16,10,15.50
2018,02,27,16,11,16.90
2018,02,27,16,12,17.40
2018,02,27,16,13,13.20
2018,02,27,16,14,15.00
2018,02,27,16,15,16.50
2018,02,27,16,16,12.40
2018,02,27,16,17,12.40
2018,02,27,16,18,21.90
2018,02,27,16,19,18.30
2018,02,27,16,20,17.60
2018,02,27,16,21,17.80
2018,02,27,16,22,21.10
2018,02,27,16,23,18.40
2018,02,27,16,24,25.70
2018,02,27,16,25,16.60
2018,02,27,16,26,16.20
2018,02,27,16,27,18.40
2018,02,27,16,28,24.00
2018,02,27,16,29,13.20
2018,02,27,16,30,13.60
2018,02,27,16,31,11.00
2018,02,27,16,32,14.60
2018,02,27,16,33,17.00
2018,02,27,16,34,12.30
2018,02,27,16,35,14.50
2018,02,27,16,36,11.90
2018,02,27,16,37,10.00
2018,02,27,16,38,10.50
2018,02,27,16,39,13.40
2018,02,27,16,40,12.00
2018,02,27,16,41,9.80
2018,02,27,16,42,13.60
2018,02,27,16,43,12.50
2018,02,27,16,44,11.10
2018,02,27,16,45,20.80
2018,02,27,16,46,15.70
2018,02,27,16,47,16.90
2018,02,27,16,48,14.40
2018,02,27,16,49,9.40
2018,02,27,16,50,9.10
2018,02,27,16,51,3.90
2018,02,27,16,52,13.70
2018,02,27,16,53,8.00
2018,02,27,16,54,7.70
2018,02,27,16,55,10.70
2018,02,27,16,56,9.70
2018,02,27,16,57,10.20
2018,02,27,16,58,12.20
2018,02,27,16,59,12.90
2018,02,27,17,00,8.90
2018,02,27,17,01,7.10
2018,02,27,17,02,13.00
2018,02,27,17,03,11.80
2018,02,27,17,04,11.20
2018,02,27,17,05,7.20
2018,02,27,17,06,8.80
2018,02,27,17,07,7.10
2018,02,27,17,08,10.20
2018,02,27,17,09,11.60
2018,02,27,17,10,7.80
2018,02,27,17,11,8.60
2018,02,27,17,12,8.10
2018,02,27,17,13,9.40
2018,02,27,17,14,7.80
2018,02,27,17,15,11.00
2018,02,27,17,16,15.30
2018,02,27,17,17,13.00
2018,02,27,17,18,12.30
2018,02,27,17,19,9.40
2018,02,27,17,20,11.50
2018,02,27,17,21,16.50
2018,02,27,17,22,11.90
2018,02,27,17,23,10.50
2018,02,27,17,24,10.40
2018,02,27,17,25,12.30
2018,02,27,17,26,9.20
2018,02,27,17,27,12.40
2018,02,27,17,28,13.70
2018,02,27,17,29,9.30
2018,02,27,17,30,10.00
2018,02,27,17,31,11.30
2018,02,27,17,32,11.90
2018,02,27,17,33,10.30
2018,02,27,17,34,13.80
2018,02,27,17,35,16.20
2018,02,27,17,36,13.20